STARLINK-1534 (46030 NORAD) Tracking and Keplerian Element Data

This shows tracking and keplerian element data for the satellite.

Feedback or suggestion? Click here.




ElementValue
Catalog46030
NameSTARLINK-1534
Epoch Orbit1914
Epoch Day338.58039421
Epoch Year2020
RAAN115.2992
Inclination53.0017
Eccentricity0.0002124
Argument of Perigee99.1267
Mean Anonmoly260.9962
Mean Motion15.05593316
Decay Rate1.539E-05
L11 46030U 20055D 20338.58039421 .00001539 00000-0 12476-3 0 9994
L22 46030 53.0017 115.2992 0002124 99.1267 260.9962 15.05593316 19140

Live tracking and technical data element details for STARLINK-1534 (NORAD 46030). STARLINK-1534 can be tracked NOW for your location showing map with azimuth and elevation plus other details from your city location.

Track the satellite on the map from your city or location and see movement details for azimuth, elevation, latitude, longitude, range, height, and movement on the map or in text.







IsCatalogInMostPopularTable: catalog: 46030, numindb: 20
Update: records affected: 1



GetName: 46030 STARLINK-1534

Hit Count: updated at: Sat, 05 Dec 2020 05:58:51 GMT